User: anonymous   Login
Location: Unspecified
(0.0000°N, 0.0000°E)
Time: 18:20:30
(UTC+00:00)
Language:

Telecom 2C - Orbit

View from above orbital plane
View from above orbital plane
View from above satellite
View from above satellite

Ground track
Ground track

The orbit data is extracted from the following two-line orbital elements,

1 23730U 95067A   18290.50112481 -.00000161 +00000-0 +00000-0 0  9993
2 23730 011.3949 035.2002 0019565 232.0915 127.7190 00.97941219083048
Epoch (UTC): 17 October 2018 12:01:37
Eccentricity: 0.0019565
inclination: 11.3949°
perigee height: 36368 km
apogee height: 36536 km
right ascension of ascending node: 35.2002°
argument of perigee: 232.0915°
revolutions per day: 0.97941219
mean anomaly at epoch: 127.7190°
orbit number at epoch: 8304

The dashed part of the orbit path shows where the satellite is in the earth's shadow,  

DLR